Peru, IL

4:27 PM CDT on June 23, 2017 (GMT -0500)
Illinois Valley Regional-Duncan

Weather History for KVYS - December, 2014

Change the Weather History Date:

Monday, December 1, 2014

  Actual Average Record
Temperature  
Mean Temperature 20 °F -  
Max Temperature 25 °F 39 °F 61 °F (2012)
Min Temperature 16 °F 25 °F 11 °F (1966)
Degree Days  
Heating Degree Days 44    
Moisture  
Dew Point 8 °F    
Average Humidity 59    
Maximum Humidity 73    
Minimum Humidity 46    
Precipitation  
Precipitation 0.00 in - - ()
Sea Level Pressure  
Sea Level Pressure 30.58 in    
Wind  
Wind Speed 13 mph (NNE)    
Max Wind Speed 18 mph    
Max Gust Speed 24 mph    
Visibility 10 miles    
Events      
Averages and records for this station are not official NWS values.
T = Trace of Precipitation, MM = Missing Value Source: NWS Daily Summary

Daily Weather History Graph

Daily Weather History Graph

Search for Another Location

Airport or City:

Trip Planner

Search our weather history database for the weather conditions in past years. The results will help you decide how hot, cold, wet, or windy it might be!

Date:

Astronomy

Dec. 01, 2014 Rise Set
Actual Time 7:03 AM CST 4:28 PM CST
Civil Twilight 6:32 AM CST 4:58 PM CST
Nautical Twilight 5:58 AM CST 5:33 PM CST
Astronomical Twilight 5:24 AM CST 6:06 PM CST
Moon 1:36 PM CST (12/1) 1:36 AM CST (12/1)
Length of Visible Light 10h 26m
Length of Day
9h 24m
Waxing Gibbous, 75% of the Moon is Illuminated
Dec 1
Waxing Gibbous
Dec 6
Full
Dec 14
Last Quarter
Dec 21
New
Dec 28
First Quarter

Hourly Weather History & Observations

Time (CST) Temp. Windchill Dew Point Humidity Pressure Visibility Wind Dir Wind Speed Gust Speed Precip Events Conditions
12:15 AM 25.3 °F 12.2 °F 16.7 °F 70% 30.35 in 10.0 mi North 17.3 mph 23.0 mph N/A   Clear
12:35 AM 24.8 °F 11.9 °F 16.5 °F 71% 30.36 in 10.0 mi NNW 16.1 mph 20.7 mph N/A   Clear
12:55 AM 24.6 °F 11.3 °F 15.6 °F 69% 30.37 in 10.0 mi North 17.3 mph 20.7 mph N/A   Clear
1:15 AM 24.6 °F 11.3 °F 14.9 °F 67% 30.38 in 10.0 mi North 17.3 mph 24.2 mph N/A   Clear
1:35 AM 24.6 °F 12.7 °F 15.6 °F 69% 30.40 in 10.0 mi North 13.8 mph - N/A   Clear
1:55 AM 23.9 °F 10.8 °F 14.7 °F 68% 30.41 in 10.0 mi North 16.1 mph 21.9 mph N/A   Clear
2:15 AM 23.4 °F 9.6 °F 12.6 °F 63% 30.42 in 10.0 mi North 17.3 mph 21.9 mph N/A   Clear
2:35 AM 23.0 °F 10.1 °F 12.0 °F 63% 30.44 in 10.0 mi North 15.0 mph 20.7 mph N/A   Clear
2:55 AM 23.0 °F 8.7 °F 12.6 °F 64% 30.44 in 10.0 mi North 18.4 mph - N/A   Clear
3:15 AM 23.0 °F 10.6 °F 13.8 °F 68% 30.46 in 10.0 mi NNW 13.8 mph 18.4 mph N/A   Clear
3:35 AM 22.6 °F 10.7 °F 10.8 °F 60% 30.47 in 10.0 mi North 12.7 mph - N/A   Clear
3:55 AM 22.6 °F 9.6 °F 11.7 °F 63% 30.48 in 10.0 mi NNW 15.0 mph - N/A   Clear
4:15 AM 22.5 °F 8.9 °F 9.7 °F 58% 30.49 in 10.0 mi North 16.1 mph 21.9 mph N/A   Clear
4:35 AM 22.5 °F 8.9 °F 8.8 °F 56% 30.51 in 10.0 mi North 16.1 mph 24.2 mph N/A   Clear
4:55 AM 23.0 °F 11.7 °F 12.2 °F 63% 30.53 in 10.0 mi North 11.5 mph - N/A   Clear
5:15 AM 22.1 °F 11.3 °F 11.7 °F 64% 30.53 in 10.0 mi North 10.4 mph - N/A   Clear
5:35 AM 22.5 °F 11.7 °F 12.7 °F 66% 30.54 in 10.0 mi North 10.4 mph - N/A   Clear
5:55 AM 22.1 °F 10.0 °F 10.6 °F 61% 30.55 in 10.0 mi NNW 12.7 mph - N/A   Clear
6:15 AM 21.9 °F 10.4 °F 9.5 °F 59% 30.56 in 10.0 mi NNW 11.5 mph 16.1 mph N/A   Clear
6:35 AM 21.6 °F 8.2 °F 7.0 °F 54% 30.57 in 10.0 mi North 15.0 mph - N/A   Clear
6:55 AM 21.7 °F 10.2 °F 8.6 °F 57% 30.57 in 10.0 mi North 11.5 mph 16.1 mph N/A   Clear
7:15 AM 21.2 °F 10.1 °F 7.2 °F 55% 30.59 in 10.0 mi North 10.4 mph - N/A   Clear
7:35 AM 21.2 °F 8.9 °F 7.2 °F 55% 30.60 in 10.0 mi North 12.7 mph - N/A   Clear
7:55 AM 21.0 °F 9.9 °F 5.9 °F 52% 30.61 in 10.0 mi North 10.4 mph - N/A   Clear
8:15 AM 21.2 °F 8.3 °F 6.4 °F 53% 30.62 in 10.0 mi North 13.8 mph 18.4 mph N/A   Clear
8:35 AM 21.0 °F 7.1 °F 3.7 °F 47% 30.62 in 10.0 mi North 16.1 mph - N/A   Clear
8:55 AM 21.2 °F 8.9 °F 3.2 °F 46% 30.63 in 10.0 mi North 12.7 mph - N/A   Clear
9:15 AM 21.2 °F 9.5 °F 4.3 °F 48% 30.64 in 10.0 mi North 11.5 mph - N/A   Clear
9:35 AM 21.2 °F 10.1 °F 4.1 °F 48% 30.65 in 10.0 mi North 10.4 mph - N/A   Clear
9:55 AM 23.0 °F 11.1 °F 5.0 °F 46% 30.65 in 10.0 mi North 12.7 mph - N/A   Clear
10:15 AM 22.8 °F 12.2 °F 5.2 °F 47% 30.65 in 10.0 mi NNE 10.4 mph 17.3 mph N/A   Clear
10:35 AM 22.1 °F 10.6 °F 6.4 °F 51% 30.65 in 10.0 mi North 11.5 mph - N/A   Clear
10:55 AM 21.9 °F 11.0 °F 6.4 °F 51% 30.65 in 10.0 mi North 10.4 mph - N/A   Clear
11:15 AM 22.1 °F 10.6 °F 5.7 °F 49% 30.65 in 10.0 mi North 11.5 mph - N/A   Clear
11:35 AM 23.0 °F 13.9 °F 6.3 °F 49% 30.65 in 10.0 mi North 8.1 mph - N/A   Clear
11:55 AM 22.5 °F 11.7 °F 7.0 °F 52% 30.65 in 10.0 mi North 10.4 mph - N/A   Clear
12:15 PM 22.6 °F 12.6 °F 7.3 °F 52% 30.65 in 10.0 mi North 9.2 mph - N/A   Clear
12:35 PM 22.5 °F 11.1 °F 5.5 °F 48% 30.63 in 10.0 mi North 11.5 mph - N/A   Clear
12:55 PM 21.7 °F 10.8 °F 6.8 °F 53% 30.63 in 10.0 mi North 10.4 mph - N/A   Clear
1:15 PM 21.9 °F 11.7 °F 6.8 °F 52% 30.63 in 10.0 mi NNE 9.2 mph - N/A   Clear
1:35 PM 21.9 °F 10.4 °F 6.3 °F 51% 30.63 in 10.0 mi NNE 11.5 mph - N/A   Clear
1:55 PM 21.7 °F 10.8 °F 7.0 °F 53% 30.64 in 10.0 mi North 10.4 mph - N/A   Clear
2:15 PM 21.9 °F 11.7 °F 7.0 °F 53% 30.64 in 10.0 mi NNE 9.2 mph - N/A   Clear
2:35 PM 21.9 °F 9.8 °F 7.0 °F 53% 30.65 in 10.0 mi North 12.7 mph 17.3 mph N/A   Clear
2:55 PM 21.9 °F 10.4 °F 6.3 °F 51% 30.64 in 10.0 mi NNE 11.5 mph - N/A   Clear
3:15 PM 21.0 °F 9.3 °F 3.9 °F 48% 30.65 in 10.0 mi NNE 11.5 mph - N/A   Clear
3:35 PM 20.5 °F 8.6 °F 5.0 °F 51% 30.65 in 10.0 mi NNE 11.5 mph - N/A   Clear
3:55 PM 19.9 °F 7.3 °F 5.7 °F 54% 30.64 in 10.0 mi NE 12.7 mph - N/A   Clear
4:15 PM 19.4 °F 8.6 °F 5.5 °F 55% 30.65 in 10.0 mi NE 9.2 mph - N/A   Clear
4:35 PM 19.4 °F 7.2 °F 6.1 °F 56% 30.65 in 10.0 mi NE 11.5 mph - N/A   Clear
4:55 PM 18.9 °F 6.5 °F 7.2 °F 60% 30.64 in 10.0 mi NNE 11.5 mph - N/A   Clear
5:15 PM 18.3 °F 6.6 °F 6.4 °F 60% 30.64 in 10.0 mi NE 10.4 mph - N/A   Clear
5:35 PM 18.1 °F 7.1 °F 5.9 °F 59% 30.65 in 10.0 mi NNE 9.2 mph - N/A   Clear
5:55 PM 17.8 °F 5.9 °F 6.1 °F 60% 30.65 in 10.0 mi NNE 10.4 mph - N/A   Clear
6:15 PM 17.6 °F 6.4 °F 6.4 °F 62% 30.65 in 10.0 mi NE 9.2 mph - N/A   Clear
6:35 PM 17.6 °F 6.4 °F 6.8 °F 63% 30.65 in 10.0 mi NE 9.2 mph - N/A   Clear
6:55 PM 17.6 °F 6.4 °F 6.4 °F 62% 30.65 in 10.0 mi NE 9.2 mph - N/A   Clear
7:15 PM 17.4 °F 5.4 °F 6.6 °F 63% 30.64 in 10.0 mi NE 10.4 mph - N/A   Clear
7:35 PM 17.2 °F 6.0 °F 7.2 °F 65% 30.64 in 10.0 mi NE 9.2 mph - N/A   Clear
7:55 PM 16.7 °F 7.2 °F 7.2 °F 66% 30.63 in 10.0 mi NE 6.9 mph - N/A   Clear
8:15 PM 16.7 °F 6.2 °F 7.3 °F 67% 30.63 in 10.0 mi NE 8.1 mph - N/A   Clear
8:35 PM 16.7 °F 6.2 °F 7.3 °F 67% 30.62 in 10.0 mi NE 8.1 mph - N/A   Scattered Clouds
8:55 PM 17.2 °F 8.9 °F 7.3 °F 65% 30.61 in 10.0 mi ENE 5.8 mph - N/A   Overcast
9:15 PM 17.6 °F 7.3 °F 6.6 °F 62% 30.60 in 10.0 mi ENE 8.1 mph - N/A   Overcast
9:35 PM 17.6 °F 5.7 °F 7.5 °F 65% 30.59 in 10.0 mi NE 10.4 mph - N/A   Overcast
9:55 PM 17.6 °F 8.2 °F 7.9 °F 66% 30.58 in 10.0 mi NNE 6.9 mph - N/A   Overcast
10:15 PM 17.6 °F 8.2 °F 8.2 °F 67% 30.58 in 10.0 mi NE 6.9 mph - N/A   Overcast
10:35 PM 18.1 °F 7.9 °F 8.6 °F 66% 30.57 in 10.0 mi NE 8.1 mph - N/A   Overcast
10:55 PM 18.1 °F 10.0 °F 8.4 °F 66% 30.57 in 10.0 mi NE 5.8 mph - N/A   Overcast
11:15 PM 18.3 °F 9.1 °F 9.3 °F 68% 30.55 in 10.0 mi NE 6.9 mph - N/A   Overcast
11:35 PM 17.6 °F 9.3 °F 10.4 °F 73% 30.54 in 10.0 mi NNE 5.8 mph - N/A   Overcast
11:55 PM 18.5 °F 11.7 °F 10.6 °F 71% 30.54 in 10.0 mi NE 4.6 mph - N/A   Overcast